星链-11193 (STARLINK-11193)

导读 | 豆包AI

STARLINK-11193是美国SpaceX星链星座的卫星,于2024年7月3日发射升空,属于星链低轨互联网星座部署中的一员。星链计划旨在打造全球覆盖的卫星互联网,该卫星入轨后将参与提供全球宽带网络服务,补充星座容量,提升服务覆盖与通信能力,推动天基互联网建设。

Basic Information
目录编号:
60195
目录名称:
STARLINK-11193
国际标识:
2024-124N
轨道中心:
EARTH
卫星名称:
星链-11193 (STARLINK-11193)
卫星全名:
星链-11193 (STARLINK-11193)
卫星状态:
在轨 (已飞行620 天)
发射日期:
2024-07-03 UTC
国别 :
美国 (US)
星等 :
--
Orbit Information
数据来源 国际轨道数据 AOE轨道数据
星历时间 2026-03-14T22:05:40+0800
1天前
查看轨道信息
2026-03-13T09:00:00+0800
2天前
查看轨道信息
半长轴 6737.803km 6737.832km
偏心率 0.0001188 0.0000845
轨道倾角 53.158° 53.159°
近地点辐角 85.821° 60.485°
升交点赤经 137.083° 144.704°
平近点角 274.294° 200.457°
近地点 358.865km 359.125km
远地点 360.467km 360.265km
周期 91.735分钟 91.736分钟
每日圈数 15.697313 15.697214
Detailed Information
卫星平台:
Starlink v2.0 mini
运营商:
太空探索技术公司
运营商所在国:
美国
制造商(研发单位):
太空探索技术公司
制造商所在国:
美国
使用方式:
暂无
Satellite Introduction
星链(Starlink)计划是由太空探索技术公司(SpaceX)提出的一个巨型低轨卫星互联网星座项目,计划在2019年至2024年间在太空搭建由约1.2万颗卫星组成的“星链”网络,其中1584颗将部署在地球上空550千米处的近地轨道,并从2020年开始工作。该卫星仍在工作。
2D Orbit Map
3D Orbit Map
Orbit Altitude Analysis Chart
Orbit Inclination Analysis Chart
Orbit Comprehensive Analysis Chart
View Comprehensive Chart